Home > Weather > Hagen > Past weeks

Flag for Germany Weather for the Past 2 Weeks in Hagen, North Rhine-Westphalia, Germany

Now
37 °F

Passing clouds.


Feels Like: 28 °F
Forecast: 37 / 42 °F
Wind: 15 mph from West

Location: Dortmund / Wickede

Current Time: Feb 10, 2016 at 2:36:41 AM

Latest Report: Feb 9, 2016 at 10:50 PM


Visibility: N/A

Pressure: 29.15 "Hg

Humidity: 87%

Dew point: 34 °F

Location of HagenLocation

Historic Weather in Hagen — Graph

°F

Hagen Temperature Yesterday

Maximum temperature yesterday: 48 °F (at 3:50 PM)
Minimum temperature yesterday: 34 °F (at 9:20 PM)
Average temperature yesterday: 41 °F

High & Low Weather Summary for the Past Weeks

 TemperatureHumidityPressure
High52 °F (Jan 26, 2:20 PM)94% (Feb 1, 7:20 AM)30.30 "Hg (Feb 1, 7:20 AM)
Low34 °F (Feb 9, 9:20 PM)53% (Jan 28, 2:20 PM)28.82 "Hg (Feb 9, 3:50 PM)
Average44 °F75%29.87 "Hg
* Reported Jan 25 10:50 PM — Feb 9 10:50 PM, Hagen, Weather by CustomWeather, © 2016

Note: Actual official high and low records may vary slightly from our data, if they occured in-between our weather recording intervals... More about our weather records

Advertising

Hagen Weather History for the Previous 24 Hours

 ConditionsComfort  
Time TempWeatherWind HumidityBarometerVisibility
10:50 PM
Tue, Feb 9
37 °FPassing clouds.15 mph87%29.15 "HgN/A
10:20 PM37 °FPassing clouds.20 mph87%29.12 "HgN/A
9:50 PM36 °FPassing clouds.21 mph87%29.12 "HgN/A
9:20 PM34 °FSnow flurries. Low clouds.20 mph87%29.09 "Hg4 mi
8:50 PM36 °FSprinkles. Passing clouds.17 mph87%29.06 "Hg5 mi
8:20 PM36 °FSprinkles. Passing clouds.18 mph87%29.03 "HgN/A
7:50 PM36 °FSprinkles. Passing clouds.17 mph87%28.97 "HgN/A
7:20 PM36 °FSprinkles. Passing clouds.22 mph87%28.94 "Hg6 mi
6:50 PM41 °FSprinkles. Passing clouds.21 mph87%28.85 "HgN/A
6:20 PM45 °FSprinkles. Passing clouds.18 mph81%28.82 "Hg6 mi
5:50 PM45 °FScattered showers. Passing clouds.20 mph76%28.82 "HgN/A
5:20 PM45 °FScattered showers. Clear.17 mph76%28.82 "HgN/A
4:20 PM48 °FSprinkles. Partly sunny.17 mph76%28.82 "Hg5 mi
3:50 PM48 °FPartly sunny.17 mph76%28.82 "HgN/A
3:20 PM45 °FScattered showers. Partly sunny.13 mph81%28.85 "HgN/A
2:50 PM41 °FBroken clouds.10 mph87%28.91 "HgN/A
2:20 PM39 °FLight rain. Partly sunny.13 mph87%28.97 "HgN/A
1:50 PM39 °FLight rain. Scattered clouds.14 mph87%29.03 "Hg4 mi
1:20 PM39 °FLight rain. Passing clouds.12 mph81%29.09 "Hg4 mi
12:50 PM39 °FLight rain. Partly sunny.12 mph87%29.12 "Hg6 mi
12:20 PM41 °FLight rain. Partly sunny.9 mph81%29.18 "Hg6 mi
11:20 AM43 °FLight rain. Partly sunny.16 mph71%29.27 "HgN/A
10:50 AM43 °FSunny.15 mph71%29.27 "Hg10 mi
10:20 AM43 °FSunny.15 mph71%29.30 "Hg10 mi
9:50 AM43 °FScattered clouds.16 mph71%29.33 "HgN/A
8:50 AM43 °FPartly sunny.15 mph71%29.36 "HgN/A
8:20 AM43 °FPartly sunny.15 mph71%29.39 "HgN/A
7:50 AM41 °FPassing clouds.12 mph81%29.39 "HgN/A
6:50 AM39 °FLight rain. Partly cloudy.13 mph87%29.42 "HgN/A
6:20 AM43 °FLight rain. Passing clouds.24 mph66%29.42 "HgN/A
5:50 AM43 °FPassing clouds.23 mph66%29.42 "HgN/A
5:20 AM43 °FPassing clouds.26 mph66%29.42 "HgN/A
Weather by CustomWeather, © 2016

See weather overviewHow to use our weather pages